Location: Aranbee
(34.0885°N, 118.2342°W)
Time: 13:22:20
(UTC+00:00)

Tiros 1 - Pass Details

Date: 30 November 2020
Orbit: 630 x 663 km, 48.4° (Epoch: 21 January)

Event Time Altitude Azimuth Distance (km) Brightness Sun altitude
Rises 02:43:47 0° 312° (NW) 2,986 11.1 -24.4°
Reaches altitude 10° 02:46:54 10° 332° (NNW) 2,068 9.9 -25.1°
Enters shadow 02:48:33 15° 351° (N) 1,746 9.3 -25.4°
Maximum altitude 02:50:03 17° 13° (NNE) 1,638 - -25.7°
Drops below altitude 10° 02:53:09 10° 55° (NE) 2,053 - -26.3°
Sets 02:56:14 0° 75° (ENE) 2,955 - -27.0°
